Weather Roundup
Issued by NWS

Home | Current Version | Previous Version | Text Only | Print | Product List | Glossary On
Versions: 1 2 3 4 5 6 7 8 9 10 11 12 13 14 15 16 17 18 19 20 21 22 23 24 25 26 27 28 29 30 31 32 33 34 35 36 37 38 39 40 41 42 43 44 45 46 47 48 49 50
941
NZUS93 KARX 192059
HRRWXR

CURRENT HOURLY OBSERVATIONS ACROSS
MUCH OF THE UPPER MISSISSIPPI VALLEY
NATIONAL WEATHER SERVICE LA CROSSE WI
400 PM CDT SAT AUG 19 2017


...SOUTHEAST MINNESOTA...


CITY           SKY/WX    TMP DP  RH WIND       PRES   REMARKS
ROCHESTER      MOSUNNY   77  65  66 VRB7      29.95F
ROCHESTER/MAYO FAIR      79  60  51 S5        29.95S
WINONA         SUNNY     79  59  50 SW5       29.94S
AUSTIN         SUNNY     77  63  61 SW6       29.94F
ALBERT LEA     MOSUNNY   81  64  57 SW6       29.94S
DODGE CENTER   SUNNY     75  63  64 S5        29.95S
PRESTON        MOSUNNY   76  59  55 S8        29.96F
OWATONNA       SUNNY     79  63  57 SW8       29.93F
FARIBAULT      SUNNY     79  63  57 S7        29.93S
$$

...ELSEWHERE IN MINNESOTA...


CITY           SKY/WX    TMP DP  RH WIND       PRES   REMARKS
MINNEAPOLIS    MOSUNNY   79  61  53 SW9       29.91F
INTNL FALLS    SUNNY     81  54  39 W7        29.80F
DULUTH         MOSUNNY   79  58  48 SW13G20   29.88S
RED WING       MOSUNNY   81  55  41 SW6       29.91F
REDWOOD FALLS  SUNNY     79  62  56 S12       29.89F
MANKATO        SUNNY     77  64  64 S7        29.92F
WORTHINGTON    SUNNY     78  64  61 SE7       29.93F
FAIRMONT       MOSUNNY   78  65  63 MISG      29.93F
$$

...SOUTHWEST WISCONSIN...


CITY           SKY/WX    TMP DP  RH WIND       PRES   REMARKS
LA CROSSE      SUNNY     84  58  40 SW8       29.93S
PRAIRIE DU CHI SUNNY     80  54  40 CALM      29.95S
BOSCOBEL       SUNNY     83  59  44 W5        29.95S
LONE ROCK      MOSUNNY   82  59  45 MISG      29.94F
PLATTEVILLE    SUNNY     78  61  55 S6        29.97F
FORT MC COY    SUNNY     78  57  47 SW5       29.95F
MAUSTON-NEW LI PTCLDY    80  60  49 W8        29.94F
VIROQUA        FAIR      78  61  56 S6        29.97S
WIS DELLS      MOSUNNY   81  58  44 W7        29.95S
$$

...ELSEWHERE IN WISCONSIN...


CITY           SKY/WX    TMP DP  RH WIND       PRES   REMARKS
MILWAUKEE      MOSUNNY   81  60  48 N7        29.94S
MADISON        MOSUNNY   81  60  48 NW5       29.95F
GREEN BAY      SUNNY     81  63  54 W8        29.90S
EAU CLAIRE     MOSUNNY   79  57  46 SW10      29.92S
BLACK RVR FLS  FAIR      81  57  43 SW3       29.94S
MEDFORD        MOSUNNY   75  58  55 W12       29.95S
WAUSAU         SUNNY     78  56  46 W14       29.92S
WIS RAPIDS     SUNNY     82  58  43 NW12      29.95S
MARSHFIELD     SUNNY     79  57  46 W8        29.94S
RICE LAKE      MOSUNNY   75  60  59 SW5       29.94S
$$

...NORTHEAST IOWA...


CITY           SKY/WX    TMP DP  RH WIND       PRES   REMARKS
WATERLOO       MOSUNNY   80  59  48 SE6       29.93F
DUBUQUE        SUNNY     78  60  53 VRB3      29.97F
DECORAH        SUNNY     77  61  57 VRB6      29.95S
MASON CITY     MOSUNNY   79  62  56 S8        29.96S
CHARLES CITY   SUNNY     79  63  57 SE6       29.95F
OELWEIN        SUNNY     79  61  53 E3        29.97S
$$

...ELSEWHERE IN IOWA...


CITY           SKY/WX    TMP DP  RH WIND       PRES   REMARKS
DES MOINES     MOSUNNY   85  62  46 E5        29.92F
IOWA CITY      SUNNY     83  62  49 E3        29.96F
FORT DODGE     SUNNY     81  64  57 S5        29.94F
MARSHALLTOWN   MOSUNNY   80  65  59 SE6       29.94F
CEDAR RAPIDS   MOSUNNY   81  60  48 VRB5      29.95F
$$

...NORTHERN ILLINOIS...


CITY           SKY/WX    TMP DP  RH WIND       PRES   REMARKS
CHICAGO-OHARE  MOSUNNY   85  51  31 E5        29.94S
CHICAGO-MIDWAY MOSUNNY   81  55  40 E8        29.95S
MOLINE         SUNNY     83  61  47 SE7       29.95S
ROCKFORD       MOSUNNY   80  57  45 VRB3      29.97S
PEORIA         SUNNY     86  58  38 CALM      29.94F
$$

NOTE: "FAIR" INDICATES FEW OR NO CLOUDS BELOW 12,000 FEET WITH NO
SIGNIFICANT WEATHER AND/OR OBSTRUCTIONS TO VISIBILITY. WIND
SPEEDS ARE IN MILES-PER-HOUR.




USA.gov is the U.S. government's official web portal to all federal, state and local government web resources and services.